Regional Weather Roundup
Issued by NWS

Home | Current Version | Previous Version | Graphics & Text | Print | Product List | Glossary Off
Versions: 1 2 3 4 5 6 7 8 9 10 11 12 13 14 15 16 17 18 19 20 21 22 23 24 25 26 27 28 29 30 31 32 33 34 35 36 37 38 39 40 41 42 43 44 45 46 47 48 49 50

000
ASUS43 KMKX 291321
RWRWI

WISCONSIN REGIONAL WEATHER ROUNDUP
NATIONAL WEATHER SERVICE MILWAUKEE/SULLIVAN WI
800 AM CDT WED JUL 29 2015

NOTE: "FAIR" INDICATES FEW OR NO CLOUDS BELOW 12,000 FEET WITH NO
SIGNIFICANT WEATHER AND/OR OBSTRUCTIONS TO VISIBILITY.

WIZ001-002-006>008-014>016-023>028-291400-
NORTHWEST WISCONSIN

CITY           SKY/WX    TMP DP  RH WIND       PRES   REMARKS
SUPERIOR ARPT  CLOUDY    66  53  63 SW14      29.74S
ASHLAND        SUNNY     68  53  58 SW14G30   29.76R
HAYWARD        SUNNY     67  49  52 SW15G29   29.83R
SIREN          SUNNY     67  51  55 W17G23    29.85S
CUMBERLAND     SUNNY     64  48  55 W13G25    29.88S
RICE LAKE      SUNNY     67  51  55 SW13G18   29.89S
CHETEK         SUNNY     67  53  59 SW7       29.89S
LADYSMITH      SUNNY     67  53  59 SW16G22   29.89S
EAU CLAIRE     SUNNY     69  53  56 SW14G23   29.91F
MENOMONIE      SUNNY     69  51  53 SW18G25   29.92S
NEW RICHMOND   SUNNY     69  48  47 W13G25    29.92S
OSCEOLA        SUNNY     69  50  50 W18       29.93R
$$

WIZ003>005-009-010-017-018-291400-
NORTH CENTRAL WISCONSIN

CITY           SKY/WX    TMP DP  RH WIND       PRES   REMARKS
MANITOWISH WTR SUNNY     66  52  59 SW12G25   29.83F
ARBOR VITAE    SUNNY     69  53  57 SW18G29   29.85F
WOODRUFF       SUNNY     69  53  57 SW18G29   29.85F
RHINELANDER    SUNNY     69  52  54 W15G23    29.89F
EAGLE RIVER    SUNNY     67  49  52 SW16      29.85F
LAND O LAKES   SUNNY     69  49  49 SW12G20   29.84F
PHILLIPS       SUNNY     67  53  59 SW21G26   29.85F
TOMAHAWK       MOSUNNY   67  53  61 SW6       29.90F
MEDFORD        MOSUNNY   66  54  64 SW14      29.92F
MERRILL        NOT AVBL
$$

WIZ029-030-035-036-043>047-291400-
CENTRAL WISCONSIN

CITY           SKY/WX    TMP DP  RH WIND       PRES   REMARKS
WAUSAU         PTSUNNY   69  56  62 SW8       29.91S
MOSINEE        SUNNY     66  59  77 SW14      29.95S
MARSHFIELD     PTSUNNY   67  56  67 SW9       29.94F
STEVENS POINT  PTSUNNY   69  57  67 SW8       29.95F
WAUPACA        CLOUDY    74  60  61 W10       29.94S
WAUTOMA        CLOUDY    74  60  61 W9        29.96S
WISC RAPIDS    PTSUNNY   70  55  59 W8        29.96F
CAMP DOUGLAS   PTSUNNY   68  64  88 SW5       29.97S
$$

WIZ011>013-019>022-031-037>040-048>050-291400-
NORTHEAST WISCONSIN

CITY           SKY/WX    TMP DP  RH WIND       PRES   REMARKS
ANTIGO         MOSUNNY   68  56  64 W12G18    29.92S
SHAWANO        PTSUNNY   74  57  56 W8        29.91S
OCONTO         PTSUNNY   75  57  53 W9G16     29.88R
STURGEON BAY   CLOUDY    75  57  53 W13       29.91R
GREEN BAY      CLOUDY    74  60  61 W12       29.91R
MANITOWOC      CLOUDY    77  66  68 MISG      29.90S
APPLETON       PTSUNNY   73  55  53 W10       29.94R
CLINTONVILLE   CLOUDY    73  55  53 W10       29.91S
OSHKOSH        CLOUDY    75  62  64 W8G18     29.93S
$$

WIZ032>034-041-042-053>061-291400-
SOUTHWEST WISCONSIN

CITY           SKY/WX    TMP DP  RH WIND       PRES   REMARKS
LA CROSSE      PTSUNNY   73  54  51 W9        29.97S
SPARTA         PTSUNNY   69  56  63 CALM      29.98S
VIROQUA        PTSUNNY   69  58  67 W6        30.01S
BOSCOBEL       PTSUNNY   73  63  70 SW5       30.01R
PRAIRIE DU CHI CLOUDY    71  59  65 W3        30.01S
PLATTEVILLE    CLOUDY    70  67  90 W6        30.02R
$$

WIZ056-057-062-063-064-067-068-291400-
SOUTH CENTRAL WISCONSIN

CITY           SKY/WX    TMP DP  RH WIND       PRES   REMARKS
REEDSBURG      CLOUDY    73  60  65 W8        29.98S
BARABOO/DELLS  CLOUDY    73  58  60 W9        29.98F
LONE ROCK      PTSUNNY   73  61  65 W8        30.00R
MINERAL POINT  CLOUDY    72  66  83 NW8       30.01S
MADISON        CLOUDY    73  68  84 NW6       29.96S
MIDDLETON      CLOUDY    73  71  92 W6        29.98S
WATERTOWN      CLOUDY    68  68 100 CALM      29.94S
MONROE         CLOUDY    72  64  78 W5        30.00R
JANESVILLE     PTSUNNY   72  64  78 NW7       29.98R
$$

WIZ051-052-058>065-066-070>072-291400-
SOUTHEAST WISCONSIN

CITY           SKY/WX    TMP DP  RH WIND       PRES   REMARKS
MILWAUKEE      CLOUDY    78  70  76 NW10G22   29.92F HX  80
WAUKESHA       MOSUNNY   72  66  83 NW12      29.95F
MILWAUKEE/TIMM PTSUNNY   75  70  83 W10G17    29.94S
RACINE         CLOUDY    77  70  79 NW10      29.96R
BURLINGTON     CLOUDY    73  67  83 NW16G26   29.96R
KENOSHA        CLOUDY    76  72  87 NW8       29.95R
FOND DU LAC    CLOUDY    75  64  68 W13       29.93F
SHEBOYGAN      CLOUDY    77  64  64 W8        29.92R
WEST BEND      LGT RAIN  72  68  88 W8        29.93F
JUNEAU         CLOUDY    72  66  81 W7        29.95S
$$

LSZ147-162-291400-
LAKE SUPERIOR

STATION/POSITION TIME  TEMP    WIND        PRES    WAVE
                       AIR SEA DIR/SP/G            HT/PER
                 (UTC) (F)     (DEG/KT/KT) (MB)    (FT/S)
W MID LAKE BUOY  1250   66 61  220/ 21/ 23 1004.8R   5/ 6
DEVILS ISLAND    1300   68     230/ 26/ 35 1005.6R
PORT WING        1240   67     220/ 12/ 21 1007.1R
SAXON HARBOR     1240   70                 1007.8R
$$

LMZ867-665-643>646-291400-
LAKE MICHIGAN

STATION/POSITION TIME  TEMP    WIND        PRES    WAVE
                       AIR SEA DIR/SP/G            HT/PER
                 (UTC) (F)     (DEG/KT/KT) (MB)    (FT/S)
CHAMBERS ISLAND  1200   75     220/  5/ 10 1010.5R
S GREEN BAY BUOY 1300   75 74  250/ 16/ 19 1013.4R
N MID LAKE BUOY  1250   72 69  220/ 14/ 17 1009.8R   3/ 4
NORTHPORT PIER   1200   76     270/  4/ 14 1010.5R
SISTER BAY       1214   76     280/ 16/ 17   N/A
ALGOMA LAKESHORE 1212          320/  6/  9   N/A
KEWAUNEE LAKESHO 1200   76     270/  7/  9 1011.2R
SHEBOYGAN LAKESH 1300   77     300/  9/ 12 1012.8R
PORT WASHINGTON  1200   76     270/  7/ 10 1013.5
ATWATER BUOY     1300   69     320/  8/  8 1014.6F
MILWAUKEE LAKESH 1300   76     300/ 10/ 15   N/A
KENOSHA   LAKESH 1300   77     300/  9/ 14 1013.5R
$$

TC  - TEMPERATURE IN CELSIUS
VSB - VISIBILITY IN STATUTE MILES
WCI - WIND CHILL INDEX
HX  - HEAT INDEX




USA.gov is the U.S. government's official web portal to all federal, state and local government web resources and services.